This demonstration page uses our WeatherBlox Daily Observations layout. Learn more.

Left ArrowRight Arrow

34.74481, -87.66753

Hourly Observations for May 21, 2019

Temp ( °F °C ) Dew Point ( °F °C ) Humidity (%) Winds ( mph kmh ) Pressure ( in mb ) Visibility ( mi km ) Precip ( " mm )
12:53 am 00:53 Clear 70 21.1 66 18.9 87 87 SE 3 6 29.91 1013 10 16 0.00 0.00
1:53 am 01:53 Clear 68 20 65 18.3 90 90 ESE 3 6 29.89 1012 10 16 0.00 0.00
2:53 am 02:53 Clear 68 20 65 18.3 90 90 E 5 7 29.89 1012 10 16 0.00 0.00
3:53 am 03:53 Clear 66 18.9 64 17.8 93 93 E 3 6 29.90 1013 10 16 0.00 0.00
4:53 am 04:53 Clear 67 19.4 64 17.8 91 91 ESE 7 11 29.88 1012 10 16 0.00 0.00
5:53 am 05:53 Sunny 66 18.9 64 17.8 93 93 ESE 5 7 29.89 1012 10 16 0.00 0.00
6:53 am 06:53 Sunny 70 21.1 65 18.3 84 84 E 5 7 29.90 1013 10 16 0.00 0.00
8:53 am 08:53 Sunny 78 25.6 67 19.4 69 69 SE 9 15 29.92 1013 10 16 0.00 0.00
9:53 am 09:53 Sunny 83 28.3 68 20 61 61 SSE 9 15 29.91 1013 10 16 0.00 0.00
10:53 am 10:53 Sunny 85 29.4 68 20 57 57 SSE 9 15 29.90 1013 10 16 0.00 0.00
11:53 am 11:53 Partly Cloudy 87 30.6 68 20 53 53 S 16 26 29.89 1012 10 16 0.00 0.00
1:53 pm 13:53 Mostly Sunny 89 31.7 66 18.9 47 47 SSE 17 28 29.87 1011 10 16 0.00 0.00
2:53 pm 14:53 Sunny 91 32.8 63 17.2 39 39 S 10 17 29.85 1011 10 16 0.00 0.00
3:53 pm 15:53 Mostly Sunny 89 31.7 62 16.7 41 41 S 16 26 29.85 1011 10 16 0.00 0.00
4:53 pm 16:53 Mostly Sunny 88 31.1 62 16.7 42 42 S 14 22 29.85 1011 10 16 0.00 0.00
5:53 pm 17:53 Sunny 89 31.7 63 17.2 42 42 SSW 12 19 29.83 1010 10 16 0.00 0.00
6:53 pm 18:53 Sunny 86 30 64 17.8 48 48 S 9 15 29.82 1010 10 16 0.00 0.00
7:53 pm 19:53 Clear 83 28.3 63 17.2 51 51 S 8 13 29.82 1010 10 16 0.00 0.00
8:53 pm 20:53 Clear 79 26.1 64 17.8 60 60 S 6 9 29.85 1011 10 16 0.00 0.00
9:53 pm 21:53 Clear 78 25.6 65 18.3 64 64 SSE 6 9 29.86 1011 10 16 0.00 0.00
10:53 pm 22:53 Clear 76 24.4 65 18.3 69 69 SSE 5 7 29.87 1012 10 16 0.00 0.00
11:53 pm 23:53 Clear 76 24.4 65 18.3 69 69 SSE 6 9 29.88 1012 10 16 0.00 0.00

Powered by AerisWeather